Find Starlink 35207

NORAD ID: 65500 Int'l Des: 2025-198 Owner: SPXS Country: US Constellation: starlink operational
LEOCIRCULAR

Current View

Loading 3D Globe...

About Starlink 35207

Starlink 35207 (NORAD 65500) is a starlink constellation satellite (v2 mini) launched Sep 5, 2025 by SPXS of US. It operates in LEO, CIRCULAR orbit with a mass of 575.00 kg.

About Starlink 35207

Description loading...

Upcoming Passes

Passes for default location (London). Set your location on the main map for personalized predictions.

Altitude History

Loading altitude history...

Two-Line Element Set

1 65500U 25198J 26163.30086903 .00027043 00000-0 92166-3 0 9991
2 65500 53.1561 191.6664 0001118 114.8686 245.2431 15.30206970 43109
Epoch: Jun 12, 2026 • Age: 26 hours

Current Status

Altitude 485.0 km
Velocity 7.62 km/s
Sub-Earth Point -30.48°S, 113.34°E
Launch Date Sep 5, 2025
Age 0.7 years
Type internet

Technical Details

Classification Payload
Mass 575.00 kg
Dry Mass 530.00 kg
Total Mass 575.00 kg
Length 0.30 m
Diameter 4.10 m
Span 29.00 m
Shape Box + pan
Manufacturer SPXS
Bus Type Starlink V2MO
Phase Status In Orbit
Owner/State SPXS/US

Most Searched